Tracking 22124 objects as of 25-Jan-2021
HD Live streaming from Space Station
objects crossing your sky now

BS-3A (YURI 3A)

Track BS-3A (YURI 3A) now!
BS-3A (YURI 3A) is classified as:


NORAD ID: 20771
Int'l Code: 1990-077A
Perigee: 36,167.1 km
Apogee: 36,250.1 km
Inclination: 15.4 °
Period: 1,457.3 minutes
Semi major axis: 42579 km
RCS: 1.6597 m2 (large)
Launch date: August 28, 1990
Source: Japan (JPN)
Launch site: TANEGASHIMA SPACE CENTER (TNSTA)
aabbcc
Your satellite tracking list
Your tracking list is empty




NASA's NSSDC Master Catalog

Two Line Element Set (TLE):
1 20771U 90077A   21024.60861622  .00000033  00000-0  00000-0 0  9996
2 20771  15.4133  13.1699 0009753 250.7014 317.5731  0.98809921116111
Source of the keplerian elements: AFSPC